sat.trackr.live / text

‹ back to catalog

STARLINK-32337

NORAD 61643 · 2024-191Y

PAYLOAD ACTIVE UNKNOWN

§ Identity

Operator
Country
US
Launch date
2024-10-23
Launch site
AFETR
Launch vehicle
Mass (kg)
RCS (m²)

Purposes: comms

External: N2YO · Heavens-Above · Gunter

§ Orbital elements

Epoch: 2026-09-21T00:58:36.747840Z

Period
94.27 min
Inclination
42.9968°
Eccentricity
0.0000162
Mean motion
15.27544632 rev/d
Perigee alt
483.0 km
Apogee alt
483.3 km
Semi-major
6,861.3 km
B*
-1.3444e-3
RAAN
131.1903°
Arg perigee
314.4685°
Mean anomaly
45.6153°
Rev number
10,817

§ Raw data

STARLINK-323371 61643U 24191Y   26264.04070310 -.00037031  00000+0 -13444-2 0  99952 61643  42.9968 131.1903 0000162 314.4685  45.6153 15.27544632108178

JSON: /api/v1/satellites/61643 · /tle

For live sub-satellite position, see the globe view (requires WebGL).

§ Visibility from observer

Set your observer location to see the next 7 days of passes ≥ 10°. The values pass through the URL so the page stays shareable.

No JS? Fill the form by hand. The geolocation button needs JavaScript.